• MPC Preparation (Info)

  • MPEC 2003-J49 : 2003 JO14

    The following Minor Planet Electronic Circular may be linked-to from your own Web pages, but must not otherwise be redistributed electronically.

    A form allowing access to any MPEC is at the bottom of this page.


    Read MPEC 2003-J48 Read MPEC 2003-J50


    M.P.E.C. 2003-J49                                Issued 2003 May 10, 15:36 UT
    
         The Minor Planet Electronic Circulars contain information on unusual
             minor planets and routine data on comets.  They are published
       on behalf of Commission 20 of the International Astronomical Union by the
              Minor Planet Center, Smithsonian Astrophysical Observatory,
                              Cambridge, MA 02138, U.S.A.
    
                 Prepared using the Tamkin Foundation Computer Network
    
                                  MPC@CFA.HARVARD.EDU
              URL http://cfa-www.harvard.edu/iau/mpc.html  ISSN 1523-6714
    
                                       2003 JO14
    
    Observations:
         K03J14O* C2003 05 09.26510 13 45 43.82 +01 57 27.5          18.4        704
         K03J14O  C2003 05 09.27709 13 45 49.13 +01 51 32.8          18.6        704
         K03J14O  C2003 05 09.28929 13 45 54.70 +01 45 33.6          18.4        704
         K03J14O  C2003 05 09.30124 13 46 00.07 +01 39 42.8          18.3        704
         K03J14O  C2003 05 09.31306 13 46 05.52 +01 33 56.1          18.1        704
         K03J14O  C2003 05 09.94239 13 51 32.23 -03 03 04.6          18.5 R      J95
         K03J14O  C2003 05 09.94512 13 51 33.30 -03 04 10.2          18.2 R      J95
         K03J14O  C2003 05 09.96854 13 51 42.10 -03 13 21.0          18.5 R      J95
         K03J14O  C2003 05 09.97455 13 51 44.38 -03 15 42.2          17.7 R      J95
         K03J14O  C2003 05 10.23473 13 53 41.52 -04 51 54.1          18.2 R      926
         K03J14O  C2003 05 10.23530 13 53 41.68 -04 52 06.1          18.4 R      926
         K03J14O  C2003 05 10.23587 13 53 41.73 -04 52 17.2                      926
         K03J14O  C2003 05 10.23641 13 53 42.07 -04 52 30.7          18.3 R      926
         K03J14O  C2003 05 10.23701 13 53 42.16 -04 52 43.5          18.1 R      926
         K03J14O  C2003 05 10.25631 13 53 48.27 -04 59 36.3          18.6 R      926
         K03J14O  C2003 05 10.25714 13 53 48.53 -04 59 54.4          19.1 R      926
         K03J14O  C2003 05 10.50641 13 55 31.23 -06 20 21.8          18.1 R      E14
         K03J14O  C2003 05 10.50978 13 55 32.23 -06 21 28.8          18.0 R      E14
         K03J14O  C2003 05 10.51358 13 55 33.33 -06 22 43.0          18.8 R      E14
    
    Observer details:
    704 Lincoln Laboratory ETS, New Mexico.  Observers M. Blythe, F. Shelly,
        M. Bezpalko, R. Huber, L. Manguso, S. Adams, D. Torres, T. Brothers,
        S. Partridge.  Measurers J. Stuart, R. Sayer, J. Evans, P. Hopman.  1.0-m
        f/2.15 reflector + CCD.
    926 Tenagra II Observatory.  Observers P. R. Holvorcem, M. Schwartz.  0.81-m
        f/7 Ritchey-Chretien + CCD.
    E14 Ngunnawal.  Observer D. Higgins.  0.25-m f/5 Schmidt-Cassegrain + CCD.
    J95 Great Shefford.  Observer P. Birtwhistle.  0.30-m f/6.3 Schmidt-Cassegrain
        + CCD.
    
    Orbital elements:
    2003 JO14
    Epoch 2003 June 10.0 TT = JDT 2452800.5                 MPC
    M  68.28080              (2000.0)            P               Q
    n   0.72651086     Peri.   95.68275     -0.82052436     -0.56367438
    a   1.2254849      Node    50.04748     +0.46309764     -0.75287655
    e   0.3411981      Incl.    7.11326     +0.33508260     -0.33977654
    P   1.36           H   25.2           G   0.15           U   7
    Residuals in seconds of arc
    030509 704  1.7+  0.4-    030509 J95  0.6-  0.1+    030510 926  0.2+  0.4+
    030509 704  0.3-  0.1-    030509 J95  0.2-  0.4-    030510 926  0.2+  0.0
    030509 704  0.2+  0.4+    030510 926  0.8+  0.8-    030510 E14  0.5+  0.2+
    030509 704  0.8-  0.6+    030510 926  0.5+  0.5-    030510 E14  0.7+  0.0
    030509 704  0.1+  0.3-    030510 926  1.4-  0.7+    030510 E14  0.5+  1.1+
    030509 J95  0.8-  0.7+    030510 926  1.1+  1.2-
    030509 J95  0.3-  0.3-    030510 926  0.4-  1.1-
    
    Ephemeris:
    2003 JO14                a,e,i = 1.23, 0.34, 7                   q = 0.8074
    Date    TT    R. A. (2000) Decl.     Delta      r     Elong.  Phase     V
    2003 05 11    13 58.45   -08 53.3    0.035    1.043   160.6    18.8    19.0
    2003 05 12    14 03.44   -12 59.8    0.040    1.048   162.4    17.0    19.2
    2003 05 13    14 07.41   -16 07.8    0.045    1.054   163.1    16.2    19.5
    2003 05 14    14 10.65   -18 34.9    0.051    1.059   163.2    16.0    19.7
    2003 05 15    14 13.37   -20 32.5    0.057    1.065   162.9    16.2    20.0
    2003 05 16    14 15.68   -22 08.4    0.063    1.071   162.5    16.5    20.2
    2003 05 17    14 17.69   -23 27.7    0.068    1.076   161.9    17.0    20.4
    2003 05 18    14 19.45   -24 34.2    0.074    1.082   161.3    17.5    20.6
    2003 05 19    14 21.03   -25 30.6    0.080    1.088   160.6    18.0    20.8
    2003 05 20    14 22.46   -26 18.9    0.086    1.093   159.9    18.5    21.0
    2003 05 21    14 23.77   -27 00.6    0.092    1.099   159.2    19.0    21.2
    2003 05 22    14 24.98   -27 36.9    0.099    1.105   158.6    19.6    21.4
    2003 05 23    14 26.12   -28 08.6    0.105    1.110   157.9    20.1    21.5
    2003 05 24    14 27.19   -28 36.5    0.111    1.116   157.2    20.6    21.7
    2003 05 25    14 28.22   -29 01.2    0.117    1.121   156.6    21.0    21.8
    2003 05 26    14 29.20   -29 23.0    0.124    1.127   155.9    21.5    22.0
    2003 05 27    14 30.16   -29 42.5    0.130    1.133   155.2    22.0    22.1
    2003 05 28    14 31.10   -29 59.8    0.137    1.138   154.6    22.5    22.2
    2003 05 29    14 32.02   -30 15.4    0.143    1.144   153.9    22.9    22.4
    2003 05 30    14 32.93   -30 29.4    0.150    1.149   153.3    23.4    22.5
    2003 05 31    14 33.84   -30 41.9    0.156    1.155   152.6    23.8    22.6
    
    Timothy B. Spahr             (C) Copyright 2003 MPC           M.P.E.C. 2003-J49
    

    Read MPEC 2003-J48 Read MPEC 2003-J50


    MPEC number:

    Enter an MPEC number in one of the following forms:

    • 1997-B01 (the full form)
    • J97B01 (the packed version of the full form)
    • B01 (the abbreviated form)